GW4774 Weather Reports


time (UTC)temp
F
wind
direction
speed
knots
gust
knots
rain 1hr
in
rain 24hr
in
rain mn
in
humidity
%
barometer
mb
20260508074528 44 120 0.0 0.0 0.00 0.01 0.01 85 1012.5
20260508073007 45 120 0.0 0.0 0.01 0.01 0.01 86 1012.5
20260508071514 45 120 0.0 0.0 0.01 0.01 0.01 85 1012.6
20260508070018 45 171 0.0 3.5 0.01 0.01 0.01 85 1012.8
20260508063026 44 220 0.0 2.6 0.00 0.00 0.00 86 1012.7
20260508061511 44 138 0.0 0.0 0.00 0.00 0.00 84 1012.6
20260508060024 45 138 0.0 0.0 0.00 0.00 0.00 84 1012.7
20260508051526 45 138 0.0 0.0 0.00 0.00 0.00 79 1013.0
20260508050014 45 138 0.0 0.0 0.00 0.00 0.00 78 1013.0
20260508043029 46 138 0.0 0.9 0.00 0.00 0.00 75 1013.1
20260508041524 46 250 0.0 0.0 0.00 0.00 0.00 70 1013.2
20260508040008 45 250 0.0 1.7 0.00 0.00 0.00 72 1013.1
20260508034519 45 236 0.0 0.9 0.00 0.00 0.00 74 1013.2
20260508031528 41 276 0.0 0.0 0.00 0.00 0.00 83 1013.2
20260508030026 40 276 0.0 0.0 0.00 0.00 0.00 82 1013.2
20260508024511 40 276 0.0 0.0 0.00 0.00 0.00 78 1013.1
20260508023018 41 276 0.0 0.0 0.00 0.00 0.00 78 1013.1
20260508021523 41 276 0.0 0.0 0.00 0.00 0.00 78 1013.0
20260508014534 43 276 0.0 0.0 0.00 0.00 0.00 73 1012.8
20260508010040 46 276 0.0 0.0 0.00 0.00 0.00 66 1012.5
20260508003024 50 276 0.0 0.0 0.00 0.00 0.00 57 1012.3
20260508001529 52 276 0.0 0.9 0.00 0.00 0.00 50 1012.3
20260508000017 54 236 0.0 1.7 0.00 0.00 0.00 48 1012.2
20260507234521 55 312 0.9 2.6 0.00 0.00 0.00 45 1012.0
20260507233028 55 160 0.0 2.6 0.00 0.00 0.00 49 1011.9
20260507231524 55 149 0.9 3.5 0.00 0.00 0.00 46 1011.9
20260507230035 55 265 0.9 3.5 0.00 0.00 0.00 46 1011.9
20260507224519 55 257 0.9 4.3 0.00 0.00 0.00 45 1012.0
20260507223024 58 269 2.6 7.0 0.00 0.00 0.00 42 1012.0
20260507221524 57 245 2.6 6.1 0.00 0.00 0.00 42 1012.0
20260507220028 56 129 1.7 5.2 0.00 0.00 0.00 43 1012.0
20260507214519 57 292 1.7 6.1 0.00 0.00 0.00 45 1011.9
20260507213019 57 298 1.7 5.2 0.00 0.00 0.00 44 1011.5
20260507211534 56 315 1.7 6.1 0.00 0.00 0.00 47 1011.4
20260507210010 57 224 0.9 6.1 0.00 0.00 0.00 48 1011.3
20260507204520 57 323 1.7 7.0 0.00 0.00 0.00 50 1011.3
20260507203034 58 188 1.7 7.0 0.00 0.00 0.00 46 1011.0
20260507201522 58 325 1.7 5.2 0.00 0.00 0.00 44 1011.2
20260507200006 60 281 1.7 7.8 0.00 0.00 0.00 48 1011.1
20260507194530 60 217 2.6 5.2 0.00 0.00 0.00 44 1011.3
20260507193032 59 301 2.6 6.1 0.00 0.00 0.00 45 1011.4
20260507191519 60 265 1.7 4.3 0.00 0.00 0.00 45 1011.4
20260507190024 60 266 0.9 6.1 0.00 0.00 0.00 47 1011.5
20260507184527 57 284 2.6 6.1 0.00 0.00 0.00 46 1011.6
20260507183026 58 278 1.7 3.5 0.00 0.00 0.00 45 1011.6
20260507181515 59 262 0.0 5.2 0.00 0.00 0.00 49 1011.8
20260507180027 60 258 1.7 6.1 0.00 0.00 0.00 50 1011.9
20260507174524 60 248 0.9 5.2 0.00 0.00 0.00 47 1011.9
20260507173027 60 207 0.9 4.3 0.00 0.00 0.00 44 1011.9
20260507171514 57 222 0.9 5.2 0.00 0.00 0.00 46 1012.0
20260507170022 58 119 0.9 5.2 0.00 0.00 0.00 47 1011.9
20260507164527 60 220 0.9 5.2 0.00 0.00 0.00 48 1012.2
20260507163025 61 269 1.7 4.3 0.00 0.00 0.00 44 1012.1
20260507161539 61 157 0.9 2.6 0.00 0.00 0.00 46 1012.0
20260507160035 60 219 0.0 2.6 0.00 0.00 0.00 49 1012.0
20260507154518 59 281 1.7 4.3 0.00 0.00 0.00 43 1012.0
20260507153030 58 266 0.9 7.0 0.00 0.00 0.00 52 1012.3
20260507151526 58 255 0.9 3.5 0.00 0.00 0.00 48 1012.1
20260507150029 57 151 0.0 3.5 0.00 0.00 0.00 58 1012.4
20260507144527 55 337 1.7 5.2 0.00 0.00 0.00 53 1012.5
20260507143020 55 172 0.0 3.5 0.00 0.00 0.00 64 1012.5
20260507141526 54 152 0.0 2.6 0.00 0.00 0.00 70 1012.6
20260507140025 51 317 0.0 5.2 0.00 0.00 0.00 75 1012.7
20260507134526 49 190 0.0 2.6 0.00 0.00 0.00 82 1012.8
20260507133021 47 281 0.0 2.6 0.00 0.00 0.00 89 1013.0
20260507131520 45 165 0.0 1.7 0.00 0.00 0.00 94 1012.9
20260507130027 44 149 0.0 0.0 0.00 0.00 0.00 95 1012.9
20260507121503 39 288 0.0 0.0 0.00 0.00 0.00 95 1012.8
20260507120005 37 288 0.0 0.0 0.00 0.00 0.00 95 1012.9
20260507114505 36 288 0.0 0.0 0.00 0.00 0.00 95 1013.0
20260507113012 35 288 0.0 0.0 0.00 0.00 0.00 94 1013.0
20260507110013 34 288 0.0 0.0 0.00 0.00 0.00 95 1012.9
20260507104506 34 355 0.0 0.0 0.00 0.00 0.00 93 1012.6
20260507103013 34 355 0.0 0.0 0.00 0.00 0.00 93 1012.5
20260507101513 34 355 0.0 0.0 0.00 0.00 0.00 93 1012.5
20260507100021 35 355 0.0 0.0 0.00 0.00 0.00 93 1012.4
20260507094516 35 354 0.0 0.0 0.00 0.01 0.00 93 1012.3
20260507093013 36 355 0.0 0.0 0.00 0.03 0.00 93 1012.4
20260507091519 36 355 0.0 0.0 0.00 0.05 0.00 93 1012.5
20260507090017 36 355 0.0 0.0 0.00 0.07 0.00 93 1012.5
20260507084521 35 355 0.0 0.0 0.00 0.08 0.00 93 1012.5
20260507083016 35 355 0.0 0.0 0.00 0.09 0.00 92 1012.4
20260507081507 35 355 0.0 0.0 0.00 0.11 0.00 92 1012.5
20260507080015 36 355 0.0 0.0 0.00 0.14 0.00 91 1012.6